Edwards AFB, CA

10:14 AM PDT on April 28, 2017 (GMT -0700)
Edwards Air Force Base

Weather History for KEDW - November, 2013

Change the Weather History Date:

Tuesday, November 5, 2013

  Actual Average Record
Temperature  
Mean Temperature 48 °F -  
Max Temperature 63 °F 66 °F 82 °F (2012)
Min Temperature 32 °F 37 °F 28 °F (2015)
Degree Days  
Heating Degree Days 18    
Moisture  
Dew Point 12 °F    
Average Humidity 27    
Maximum Humidity 56    
Minimum Humidity 11    
Precipitation  
Precipitation 0.00 in - - ()
Sea Level Pressure  
Sea Level Pressure 30.19 in    
Wind  
Wind Speed 6 mph (ENE)    
Max Wind Speed 14 mph    
Max Gust Speed -    
Visibility 10 miles    
Events      
Averages and records for this station are not official NWS values.
T = Trace of Precipitation, MM = Missing Value Source: NWS Daily Summary

Daily Weather History Graph

Daily Weather History Graph

Search for Another Location

Airport or City:

Trip Planner

Search our weather history database for the weather conditions in past years. The results will help you decide how hot, cold, wet, or windy it might be!

Date:

Astronomy

Nov. 05, 2013 Rise Set
Actual Time 6:16 AM PST 4:53 PM PST
Civil Twilight 5:50 AM PST 5:19 PM PST
Nautical Twilight 5:20 AM PST 5:49 PM PST
Astronomical Twilight 4:50 AM PST 6:19 PM PST
Moon 8:33 AM PST (11/5) 7:02 PM PST (11/5)
Length of Visible Light 11h 29m
Length of Day
10h 36m
Waxing Crescent, 7% of the Moon is Illuminated
Nov 5
Waxing Crescent
Nov 9
First Quarter
Nov 17
Full
Nov 25
Last Quarter
Dec 2
New

Hourly Weather History & Observations

Time (PST) Temp. Windchill Dew Point Humidity Pressure Visibility Wind Dir Wind Speed Gust Speed Precip Events Conditions
12:58 AM 36.3 °F - 19.8 °F 51% 30.04 in 10.0 mi SSW 2.3 mph - N/A   Clear
1:58 AM 38.5 °F 36.1 °F 21.2 °F 50% 30.04 in 10.0 mi NNW 3.5 mph - N/A   Clear
2:58 AM 35.1 °F - 17.1 °F 48% 30.06 in 10.0 mi NE 2.3 mph - N/A   Clear
3:58 AM 35.1 °F 29.3 °F 20.1 °F 55% 30.07 in 10.0 mi WSW 6.9 mph - N/A   Clear
4:58 AM 32.0 °F 27.5 °F 18.0 °F 56% 30.11 in 10.0 mi South 4.6 mph - N/A   Clear
5:58 AM 33.3 °F 28.9 °F 17.6 °F 53% 30.14 in 90.0 mi NNW 4.6 mph - N/A   Clear
6:58 AM 32.5 °F 28.1 °F 15.3 °F 49% 30.19 in 95.0 mi South 4.6 mph - N/A   Clear
7:58 AM 41.4 °F 39.4 °F 17.1 °F 38% 30.22 in 90.0 mi NNW 3.5 mph - N/A   Clear
8:58 AM 47.7 °F - 16.5 °F 29% 30.23 in 90.0 mi North 5.8 mph - N/A   Clear
9:58 AM 56.3 °F - 15.6 °F 20% 30.23 in 90.0 mi ENE 11.5 mph - N/A   Clear
10:03 AM 57.2 °F - 15.8 °F 20% 30.23 in 90.0 mi ENE 12.7 mph - N/A   Clear
10:07 AM 57.2 °F - 15.8 °F 20% 30.23 in 90.0 mi East 13.8 mph - N/A   Clear
10:58 AM 58.3 °F - 15.1 °F 18% 30.23 in 90.0 mi ENE 9.2 mph - N/A   Clear
11:58 AM 59.9 °F - 13.8 °F 16% 30.20 in 90.0 mi ENE 4.6 mph - N/A   Clear
12:58 PM 61.9 °F - 11.7 °F 14% 30.19 in 90.0 mi ENE 11.5 mph - N/A   Clear
1:58 PM 62.6 °F - 9.5 °F 12% 30.17 in 90.0 mi ENE 10.4 mph - N/A   Clear
2:58 PM 63.1 °F - 10.0 °F 12% 30.17 in 90.0 mi East 8.1 mph - N/A   Partly Cloudy
3:58 PM 63.3 °F - 8.1 °F 11% 30.17 in 90.0 mi East 6.9 mph - N/A   Partly Cloudy
4:58 PM 58.8 °F - 6.4 °F 12% 30.19 in 90.0 mi East 5.8 mph - N/A   Partly Cloudy
5:05 PM 59.0 °F - 6.8 °F 13% 30.18 in 90.0 mi East 9.2 mph - N/A   Partly Cloudy
5:58 PM 52.2 °F - 2.8 °F 13% 30.22 in 50.0 mi ENE 5.8 mph - N/A   Partly Cloudy
6:58 PM 49.5 °F - 2.3 °F 14% 30.24 in 50.0 mi East 9.2 mph - N/A   Clear
7:58 PM 47.5 °F - 4.5 °F 17% 30.25 in 40.0 mi East 2.3 mph - N/A   Clear
8:58 PM 46.9 °F - 4.5 °F 18% 30.26 in 40.0 mi NNW 5.8 mph - N/A   Clear
9:58 PM 45.5 °F 42.5 °F 4.5 °F 19% 30.27 in 40.0 mi North 5.8 mph - N/A   Clear
10:58 PM 39.0 °F - 3.0 °F 22% 30.27 in 10.0 mi West 2.3 mph - N/A   Clear
11:58 PM 35.2 °F - 0.1 °F 23% 30.29 in 10.0 mi ENE 2.3 mph - N/A   Clear